Weather History for KCNB - February, 2014

Change the Weather History Date:

Saturday, February 8, 2014

  Actual Average (KMML) Record (KMML)
Temperature  
Mean Temperature 6 °F -  
Max Temperature 16 °F 23 °F 62 °F (1991)
Min Temperature -5 °F 4 °F -22 °F (1979)
Degree Days  
Heating Degree Days 60    
Moisture  
Dew Point 4 °F    
Average Humidity 84    
Maximum Humidity 90    
Minimum Humidity 74    
Precipitation  
Precipitation 0.00 in - - ()
Sea Level Pressure  
Sea Level Pressure 30.09 in    
Wind  
Wind Speed 3 mph (NNW)    
Max Wind Speed 14 mph    
Max Gust Speed -    
Visibility 8 miles    
Events Snow    
Averages and records for this station are not official NWS values.
T = Trace of Precipitation, MM = Missing Value Source: NWS Daily Summary

Daily Weather History Graph

Daily Weather History Graph

Search for Another Location

Airport or City:

Trip Planner

Search our weather history database for the weather conditions in past years. The results will help you decide how hot, cold, wet, or windy it might be!

Date:

Astronomy

Feb. 08, 2014 Rise Set
Actual Time 7:35 AM CST 5:43 PM CST
Civil Twilight 7:04 AM CST 6:14 PM CST
Nautical Twilight 6:30 AM CST 6:48 PM CST
Astronomical Twilight 5:56 AM CST 7:22 PM CST
Moon 12:34 PM CST (2/8) 2:52 AM CST (2/8)
Length of Visible Light 11h 09m
Length of Day
10h 08m
Waxing Gibbous, 69% of the Moon is Illuminated
Feb 8
Waxing Gibbous
Feb 14
Full
Feb 22
Last Quarter
Mar 1
New
Mar 8
First Quarter

Hourly Weather History & Observations

Time (CST) Temp. Windchill Dew Point Humidity Pressure Visibility Wind Dir Wind Speed Gust Speed Precip Events Conditions
12:14 AM -3.8 °F - -6.5 °F 88% 30.05 in 10.0 mi Calm Calm - N/A   Clear
12:35 AM -3.1 °F - -6.0 °F 87% 30.05 in 10.0 mi Calm Calm - N/A   Clear
12:54 AM -2.6 °F - -5.4 °F 87% 30.05 in 10.0 mi Calm Calm - N/A   Clear
1:14 AM -5.3 °F - -8.1 °F 87% 30.05 in 10.0 mi Calm Calm - N/A   Clear
1:35 AM -4.2 °F - -7.2 °F 87% 30.05 in 10.0 mi Calm Calm - N/A   Clear
1:54 AM -2.6 °F - -5.3 °F 88% 30.04 in 10.0 mi Calm Calm - N/A   Clear
2:14 AM -3.1 °F -11.4 °F -7.1 °F 83% 30.04 in 10.0 mi SW 3.5 mph - N/A   Clear
2:34 AM 2.5 °F -5.0 °F 0.1 °F 90% 30.04 in 10.0 mi SW 3.5 mph - N/A   Clear
2:55 AM 5.5 °F - 2.8 °F 89% 30.04 in 10.0 mi Calm Calm - N/A   Clear
3:15 AM 6.3 °F - 3.2 °F 87% 30.03 in 10.0 mi Calm Calm - N/A   Clear
3:34 AM 7.5 °F - 3.7 °F 85% 30.03 in 10.0 mi Calm Calm - N/A   Clear
3:55 AM 7.9 °F - 4.1 °F 85% 30.02 in 10.0 mi Calm Calm - N/A   Mostly Cloudy
4:14 AM 6.1 °F -2.8 °F 2.3 °F 84% 30.02 in 10.0 mi SE 4.6 mph - N/A   Overcast
4:34 AM 5.0 °F -2.1 °F 1.9 °F 87% 30.01 in 10.0 mi ESE 3.5 mph - N/A   Overcast
4:54 AM 4.6 °F - 1.4 °F 86% 30.02 in 10.0 mi Calm Calm - N/A   Overcast
5:15 AM 5.0 °F - 2.3 °F 89% 30.02 in 10.0 mi Calm Calm - N/A   Overcast
5:34 AM 5.4 °F - 2.3 °F 87% 30.02 in 10.0 mi Calm Calm - N/A   Overcast
5:54 AM 5.7 °F - 2.7 °F 87% 30.03 in 10.0 mi Calm Calm - N/A   Overcast
6:15 AM 6.4 °F - 3.6 °F 88% 30.03 in 10.0 mi Calm Calm - N/A   Overcast
6:35 AM 6.8 °F - 3.9 °F 88% 30.03 in 7.0 mi Calm Calm - N/A Snow Light Snow
6:54 AM 7.2 °F - 4.1 °F 87% 30.03 in 7.0 mi Calm Calm - N/A Snow Light Snow
7:14 AM 7.7 °F - 5.0 °F 89% 30.03 in 7.0 mi Calm Calm - N/A Snow Light Snow
7:35 AM 8.2 °F - 5.5 °F 89% 30.03 in 10.0 mi Calm Calm - N/A   Overcast
7:54 AM 8.6 °F - 5.7 °F 88% 30.04 in 7.0 mi Calm Calm - N/A Snow Light Snow
8:14 AM 8.6 °F - 5.9 °F 89% 30.04 in 5.0 mi Calm Calm - N/A Snow Light Snow
8:35 AM 9.0 °F - 6.1 °F 88% 30.04 in 4.0 mi Calm Calm - N/A Snow Light Snow
8:54 AM 8.6 °F - 5.9 °F 89% 30.04 in 5.0 mi Calm Calm - N/A Snow Light Snow
9:14 AM 8.4 °F - 5.4 °F 87% 30.04 in 3.0 mi Calm Calm - N/A Snow Light Snow
9:35 AM 9.0 °F - 5.9 °F 87% 30.05 in 4.0 mi Calm Calm - N/A Snow Light Snow
9:54 AM 9.9 °F - 6.6 °F 87% 30.05 in 3.0 mi Calm Calm - N/A Snow Light Snow
10:14 AM 10.4 °F - 6.8 °F 85% 30.05 in 3.0 mi Calm Calm - N/A Snow Light Snow
10:35 AM 11.1 °F - 7.7 °F 86% 30.05 in 7.0 mi Calm Calm - N/A Snow Light Snow
10:54 AM 12.2 °F - 8.1 °F 83% 30.05 in 5.0 mi Calm Calm - N/A Snow Light Snow
11:14 AM 13.1 °F - 8.6 °F 82% 30.06 in 7.0 mi Calm Calm - N/A Snow Light Snow
11:34 AM 14.0 °F 8.2 °F 9.5 °F 82% 30.06 in 7.0 mi NNW 3.5 mph - N/A Snow Light Snow
11:55 AM 15.4 °F 9.8 °F 10.6 °F 81% 30.06 in 5.0 mi NW 3.5 mph - N/A Snow Light Snow
12:14 PM 16.2 °F - 10.8 °F 79% 30.05 in 7.0 mi Calm Calm - N/A Snow Light Snow
12:34 PM 16.7 °F 9.6 °F 11.3 °F 79% 30.05 in 5.0 mi NNW 4.6 mph - N/A Snow Light Snow
12:55 PM 16.5 °F 8.1 °F 11.1 °F 79% 30.05 in 7.0 mi NNW 5.8 mph - N/A Snow Light Snow
1:14 PM 16.7 °F 8.3 °F 10.9 °F 78% 30.04 in 10.0 mi North 5.8 mph - N/A Snow Light Snow
1:35 PM 16.7 °F 7.2 °F 10.6 °F 77% 30.05 in 7.0 mi North 6.9 mph - N/A Snow Light Snow
1:54 PM 16.5 °F 6.9 °F 10.9 °F 79% 30.05 in 5.0 mi North 6.9 mph - N/A Snow Light Snow
2:14 PM 16.2 °F 5.5 °F 10.4 °F 78% 30.05 in 5.0 mi NNW 8.1 mph - N/A Snow Light Snow
2:34 PM 16.5 °F 6.0 °F 10.4 °F 77% 30.06 in 7.0 mi North 8.1 mph - N/A Snow Light Snow
2:54 PM 16.3 °F 5.7 °F 10.2 °F 77% 30.06 in 10.0 mi NNW 8.1 mph - N/A Snow Light Snow
3:14 PM 16.5 °F 6.9 °F 10.0 °F 76% 30.07 in 10.0 mi NNW 6.9 mph - N/A Snow Light Snow
3:34 PM 16.7 °F 7.2 °F 9.7 °F 74% 30.08 in 10.0 mi North 6.9 mph - N/A   Clear
3:54 PM 16.5 °F 8.1 °F 9.5 °F 74% 30.09 in 10.0 mi NNW 5.8 mph - N/A   Clear
4:15 PM 15.6 °F 7.0 °F 9.5 °F 77% 30.10 in 10.0 mi North 5.8 mph - N/A   Scattered Clouds
4:34 PM 15.4 °F 6.8 °F 9.7 °F 78% 30.10 in 7.0 mi North 5.8 mph - N/A Snow Light Snow
4:55 PM 14.2 °F 6.7 °F 9.3 °F 81% 30.11 in 4.0 mi NNW 4.6 mph - N/A Snow Light Snow
5:14 PM 13.3 °F 7.3 °F 8.8 °F 82% 30.12 in 4.0 mi NNW 3.5 mph - N/A Snow Light Snow
5:34 PM 13.1 °F 0.9 °F 9.1 °F 84% 30.13 in 5.0 mi NNW 9.2 mph - N/A Snow Light Snow
5:54 PM 11.8 °F -2.3 °F 7.7 °F 83% 30.14 in 4.0 mi NNW 11.5 mph - N/A Snow Light Snow
6:15 PM 10.6 °F -2.2 °F 6.8 °F 85% 30.15 in 7.0 mi NNW 9.2 mph - N/A Snow Light Snow
6:34 PM 10.4 °F -3.3 °F 6.8 °F 85% 30.16 in 7.0 mi NNW 10.4 mph - N/A Snow Light Snow
6:54 PM 9.5 °F -4.4 °F 5.9 °F 85% 30.17 in 10.0 mi NNW 10.4 mph - N/A Snow Light Snow
7:15 PM 9.1 °F -1.9 °F 5.7 °F 86% 30.18 in 10.0 mi NNW 6.9 mph - N/A Snow Light Snow
7:35 PM 9.0 °F -4.2 °F 3.7 °F 79% 30.19 in 10.0 mi NNW 9.2 mph - N/A   Overcast
7:54 PM 8.6 °F -7.0 °F 3.9 °F 81% 30.19 in 10.0 mi NNW 12.7 mph - N/A   Overcast
8:14 PM 7.7 °F -8.2 °F 2.3 °F 79% 30.19 in 10.0 mi NNW 12.7 mph - N/A   Overcast
8:34 PM 5.7 °F -11.4 °F 0.9 °F 80% 30.20 in 10.0 mi NNW 13.8 mph - N/A   Mostly Cloudy
8:55 PM 4.1 °F -12.0 °F -0.6 °F 81% 30.21 in 10.0 mi NNW 11.5 mph - N/A   Clear
9:15 PM 2.8 °F -11.7 °F -1.8 °F 81% 30.22 in 10.0 mi NW 9.2 mph - N/A   Clear
9:34 PM 1.6 °F -12.2 °F -2.9 °F 81% 30.23 in 10.0 mi WNW 8.1 mph - N/A   Clear
9:54 PM 0.5 °F -12.3 °F -3.6 °F 83% 30.24 in 10.0 mi NW 6.9 mph - N/A   Clear
10:15 PM -0.0 °F -14.2 °F -4.0 °F 83% 30.24 in 10.0 mi NW 8.1 mph - N/A   Clear
10:35 PM -0.8 °F -15.1 °F -4.9 °F 83% 30.24 in 10.0 mi NW 8.1 mph - N/A   Clear
10:54 PM -1.3 °F -16.8 °F -5.3 °F 83% 30.25 in 10.0 mi NW 9.2 mph - N/A   Clear
11:14 PM -2.2 °F -16.8 °F -5.8 °F 85% 30.25 in 10.0 mi NW 8.1 mph - N/A   Clear
11:34 PM -2.0 °F -18.7 °F -5.4 °F 85% 30.27 in 10.0 mi NW 10.4 mph - N/A   Clear
11:54 PM -2.2 °F -18.0 °F -5.8 °F 85% 30.26 in 10.0 mi NW 9.2 mph - N/A   Clear